This demonstration page uses our WeatherBlox Daily Observations layout. Learn more.

Left ArrowRight Arrow

44.8408, -93.29828

Hourly Observations for July 24, 2016

Temp ( °F °C ) Dew Point ( °F °C ) Humidity (%) Winds ( mph kmh ) Pressure ( in mb ) Visibility ( mi km ) Precip ( " mm )
12:13 am 00:13 Mostly Cloudy 74 23.3 70 21.1 88 88 SE 3 6 29.74 1007 10 16 0.00 0.00
12:24 am 00:24 Mostly Clear 74 23.3 70 21.1 88 88 SSE 7 11 29.74 1007 10 16 0.00 0.00
12:46 am 00:46 Mostly Cloudy 73 23 70 21 89 89 SE 6 9 29.74 1007 10 16 0.00 0.00
12:53 am 00:53 Cloudy 74 23.3 70 21.1 88 88 SE 6 9 29.76 1008 10 16 0.00 0.00
1:10 am 01:10 Cloudy 75 24 72 22 89 89 SSE 7 11 29.74 1007 10 16 0.00 0.00
1:53 am 01:53 Cloudy 76 24.4 72 22.2 88 88 S 7 11 29.75 1007 10 16 0.00 0.00
2:48 am 02:48 Cloudy with Nearby Thunderstorms 75 24 73 23 94 94 SSW 5 7 29.74 1007 9 14 0.00 0.00
2:53 am 02:53 Cloudy with Thunderstorms 76 24.4 73 22.8 91 91 Calm 29.74 1007 9 14 0.00 0.00
3:14 am 03:14 Cloudy with Light Rain 75 24 73 23 94 94 S 9 15 29.68 1005 8 13 0.00 0.00
3:53 am 03:53 Cloudy 77 25 74 23.3 90 90 WNW 9 15 29.75 1007 8 13 0.00 0.03
4:17 am 04:17 Mostly Cloudy 76 24.4 73 22.8 91 91 WNW 5 7 29.74 1007 9 14 0.00 0.00
4:29 am 04:29 Mostly Cloudy 76 24.4 73 22.8 91 91 WNW 6 9 29.74 1007 10 16 0.00 0.00
4:53 am 04:53 Cloudy 75 23.9 70 21.1 84 84 WNW 7 11 29.75 1008 10 16 0.00 0.00
5:53 am 05:53 Cloudy 74 23.3 68 20 82 82 NW 6 9 29.78 1008 10 16 0.00 0.00
6:50 am 06:50 Mostly Cloudy 73 23 70 21 89 89 NW 7 11 29.77 1008 10 16 0.00 0.00
6:53 am 06:53 Mostly Cloudy 73 22.8 69 20.6 87 87 WNW 6 9 29.79 1009 10 16 0.00 0.00
7:16 am 07:16 Mostly Sunny 73 23 70 21 89 89 WNW 3 6 29.77 1008 10 16 0.00 0.00
7:53 am 07:53 Partly Cloudy 76 24.4 70 21.1 82 82 WNW 8 13 29.82 1010 10 16 0.00 0.00
8:53 am 08:53 Partly Cloudy 78 25.6 69 20.6 74 74 WNW 10 17 29.83 1010 10 16 0.00 0.00
9:53 am 09:53 Partly Cloudy 79 26.1 67 19.4 67 67 NW 10 17 29.83 1010 10 16 0.00 0.00
10:53 am 10:53 Partly Cloudy 81 27.2 64 17.8 57 57 W 15 24 29.86 1011 10 16 0.00 0.00
11:53 am 11:53 Partly Cloudy 82 27.8 61 16.1 49 49 WNW 14 22 29.86 1011 10 16 0.00 0.00
12:53 pm 12:53 Mostly Cloudy 82 27.8 63 17.2 53 53 WNW 16 26 29.86 1011 10 16 0.00 0.00
1:53 pm 13:53 Partly Cloudy 83 28.3 62 16.7 49 49 NNW 16 26 29.86 1011 10 16 0.00 0.00
2:53 pm 14:53 Partly Cloudy 85 29.4 63 17.2 48 48 NW 12 19 29.86 1011 10 16 0.00 0.00
3:10 pm 15:10 Partly Cloudy 84 29 63 17 48 48 WNW 12 19 29.85 1011 10 16 0.00 0.00
3:53 pm 15:53 Partly Cloudy 84 28.9 62 16.7 48 48 WNW 13 20 29.91 1013 10 16 0.00 0.00
4:53 pm 16:53 Partly Cloudy 84 28.9 61 16.1 46 46 WNW 18 30 29.92 1013 10 16 0.00 0.00
5:53 pm 17:53 Mostly Cloudy 83 28.3 63 17.2 51 51 W 15 24 29.91 1013 10 16 0.00 0.00
6:53 pm 18:53 Partly Cloudy 81 27.2 62 16.7 53 53 WNW 13 20 29.91 1013 10 16 0.00 0.00
7:53 pm 19:53 Mostly Sunny 79 26.1 62 16.7 56 56 WNW 14 22 29.91 1013 10 16 0.00 0.00
8:53 pm 20:53 Mostly Clear 77 25 63 17.2 62 62 WNW 8 13 29.92 1013 10 16 0.00 0.00
9:53 pm 21:53 Mostly Clear 77 25 63 17.2 62 62 W 8 13 29.94 1014 10 16 0.00 0.00
10:53 pm 22:53 Clear 75 23.9 63 17.2 66 66 W 8 13 29.95 1014 10 16 0.00 0.00
11:53 pm 23:53 Clear 74 23.3 62 16.7 67 67 WNW 7 11 29.96 1014 10 16 0.00 0.00

Powered by AerisWeather